Regional Weather Roundup
Issued by NWS

Home | Current Version | Previous Version | Text Only | Print | Product List | Glossary On
Versions: 1 2 3 4 5 6 7 8 9 10 11 12 13 14 15 16 17 18 19 20 21 22 23 24 25 26 27 28 29 30 31 32 33 34 35 36 37 38 39 40 41 42 43 44 45 46 47 48 49 50
000
ASUS43 KTOP 301008
RWRKS

WEATHER ROUNDUP FOR KANSAS
NATIONAL WEATHER SERVICE GOODLAND KS
500 AM CDT SAT MAY 30 2015

NOTE:  "FAIR" INDICATES FEW OR NO CLOUDS BELOW 12,000 FEET WITH NO
SIGNIFICANT WEATHER AND/OR OBSTRUCTIONS TO VISIBILITY.

KSZ001>006-013>018-027>032-041>047-301100-
NORTHWEST KANSAS

CITY           SKY/WX    TMP DP  RH WIND       PRES   REMARKS
GOODLAND       CLOUDY    48  46  93 N12       30.28F
HAYS           MOCLDY    52  39  62 N24G31    30.17F
HILL CITY      PTCLDY    50  43  77 N18G25    30.20F
RUSSELL        CLOUDY    52  47  83 N18G26    30.13F
$$

KSZ061>065-074>080-084>089-301100-
SOUTHWEST KANSAS

CITY           SKY/WX    TMP DP  RH WIND       PRES   REMARKS
DODGE CITY     CLOUDY    52  49  89 N20       30.21R
ELKHART          N/A     52  46  80 N10         N/A
GARDEN CITY    CLOUDY    51  48  89 N20       30.22R
GREAT BEND     CLOUDY    54  46  76 N16G26    30.17R
LIBERAL        CLOUDY    55  46  71 N12       30.25R
PRATT          CLOUDY    52  46  82 N20       30.17R
$$

KSZ066>073-081>083-090>101-301100-
SOUTHEAST KANSAS

CITY           SKY/WX    TMP DP  RH WIND       PRES   REMARKS
CHANUTE        CLOUDY    65  65 100 NW12G18   29.97F
COFFEYVILLE    CLOUDY    64  63  96 CALM      29.96F
HUTCHINSON     CLOUDY    55  49  80 N14G22    30.12R
MEDICINE LODGE   N/A     56  50  80 N18G25    30.14R
NEWTON         CLOUDY    54  48  82 N17       30.10S
PARSONS        CLOUDY    65  65 100 NW5       29.98F
WICHITA INTL   CLOUDY    57  51  80 N20       30.09R
WICHITA JABRA  CLOUDY    56  52  86 NW16G23   30.08R
WICHITA MCCONL CLOUDY    57  52  84 NW18G24   30.09R
WINFIELD       CLOUDY    59  54  83 N17G30    30.07R
$$

KSZ007>012-019>026-033>040-048>060-102>105-301100-
NORTHEAST KANSAS

CITY           SKY/WX    TMP DP  RH WIND       PRES   REMARKS
CONCORDIA      CLOUDY    50  47  89 N14       30.14S
EMPORIA        CLOUDY    57  55  93 NW13G24   30.04S FOG
LAWRENCE       CLOUDY    60  57  89 N13G22    30.02R
MANHATTAN      CLOUDY    54  51  90 N7        30.08F
MARYSVILLE     CLOUDY    52  50  93 N16       30.10S
OLATHE IND     CLOUDY    63  62  97 NW14      30.00R FOG
OLATHE EXE     CLOUDY    64  63  96 N13       29.98R
SALINA         CLOUDY    53  49  86 N22G30    30.11F
TOPEKA BILLARD CLOUDY    58  57  97 NW9       30.04R FOG
TOPEKA FORBES  CLOUDY    58  56  93 NW17      30.03R FOG
$$


USA.gov is the U.S. government's official web portal to all federal, state and local government web resources and services.